FW6429 Weather Reports


time (UTC)temp
C
wind
direction
speed
KPH
gust
KPH
rain 1hr
cm
rain 24hr
cm
rain mn
cm
humidity
%
barometer
mb
20260508203027 8 28 11.3 19.3 0.00 0.00 0.00 82 1002.6
20260508201533 9 354 11.3 19.3 0.00 0.00 0.00 82 1002.2
20260508200030 9 5 8.0 20.9 0.00 0.00 0.00 82 1002.0
20260508194531 10 20 14.5 22.5 0.00 0.00 0.00 81 1001.8
20260508193028 10 42 8.0 20.9 0.00 0.00 0.00 81 1001.8
20260508191526 10 69 12.9 25.7 0.00 0.00 0.00 82 1001.5
20260508190031 11 5 8.0 24.1 0.00 0.00 0.00 80 1001.6
20260508184538 11 48 16.1 25.7 0.00 0.00 0.00 78 1001.4
20260508183023 11 68 11.3 24.1 0.00 0.00 0.00 78 1001.4
20260508181531 12 39 12.9 22.5 0.00 0.00 0.00 73 1001.6
20260508180020 12 49 14.5 22.5 0.00 0.00 0.00 78 1001.7
20260508174529 11 55 16.1 20.9 0.00 0.00 0.00 79 1001.6
20260508173016 11 10 14.5 19.3 0.00 0.00 0.00 78 1001.6
20260508171514 11 10 11.3 17.7 0.00 0.00 0.00 78 1002.1
20260508170011 10 15 9.7 17.7 0.00 0.00 0.00 82 1002.1
20260508164508 8 26 11.3 16.1 0.00 0.00 0.00 85 1002.0
20260508163007 8 47 9.7 20.9 0.00 0.00 0.00 85 1002.0
20260508161507 8 26 11.3 17.7 0.00 0.00 0.00 84 1001.8
20260508160006 9 39 9.7 17.7 0.00 0.00 0.00 83 1001.9
20260508154506 8 38 6.4 19.3 0.00 0.00 0.00 85 1001.9
20260508153004 8 50 11.3 17.7 0.00 0.00 0.00 86 1002.0
20260508151504 8 45 9.7 19.3 0.00 0.00 0.00 86 1002.0
20260508150005 8 42 12.9 22.5 0.00 0.00 0.00 87 1002.0
20260508144503 8 37 11.3 20.9 0.00 0.00 0.00 88 1002.3
20260508143002 8 40 14.5 27.4 0.00 0.00 0.00 88 1002.1
20260508141502 8 44 14.5 24.1 0.00 0.00 0.00 88 1002.4
20260508140003 8 10 14.5 24.1 0.00 0.00 0.00 89 1002.6
20260508134617 8 10 14.5 22.5 0.00 0.00 0.00 88 1002.7
20260508133100 8 36 8.0 22.5 0.00 0.00 0.00 84 1002.9
20260508131558 8 50 11.3 19.3 0.00 0.00 0.00 86 1002.7
20260508130057 7 49 11.3 19.3 0.00 0.00 0.00 87 1002.4
20260508124556 7 30 11.3 20.9 0.00 0.00 0.00 87 1002.4
20260508123107 7 31 9.7 17.7 0.00 0.00 0.00 87 1002.5
20260508121558 6 24 9.7 24.1 0.00 0.00 0.00 87 1002.5
20260508120054 6 357 9.7 16.1 0.00 0.00 0.00 87 1002.6
20260508114554 5 15 4.8 9.7 0.00 0.00 0.00 87 1002.8
20260508113102 5 21 4.8 9.7 0.00 0.00 0.00 87 1002.6
20260508111553 4 19 3.2 8.0 0.00 0.00 0.00 87 1002.6
20260508110051 4 5 3.2 8.0 0.00 0.00 0.00 87 1002.7
20260508104551 4 5 0.0 0.0 0.00 0.00 0.00 87 1002.9
20260508103051 3 5 1.6 6.4 0.00 0.00 0.00 87 1003.2
20260508101552 3 5 1.6 4.8 0.00 0.00 0.00 87 1002.9
20260508100046 3 36 0.0 0.0 0.00 0.00 0.00 87 1002.9
20260508094606 3 37 0.0 0.0 0.00 0.00 0.00 87 1002.4
20260508093045 3 37 0.0 0.0 0.00 0.00 0.00 87 1002.6
20260508091545 3 37 0.0 4.8 0.00 0.00 0.00 87 1002.5
20260508090048 4 38 0.0 1.6 0.00 0.00 0.00 87 1002.6
20260508084539 4 38 0.0 1.6 0.00 0.00 0.00 87 1002.6
20260508083036 4 39 0.0 6.4 0.00 0.00 0.00 87 1002.2
20260508081557 5 41 3.2 14.5 0.00 0.00 0.00 87 1002.0
20260508080033 5 50 4.8 16.1 0.00 0.00 0.00 87 1001.9
20260508074531 5 27 6.4 12.9 0.00 0.00 0.00 87 1002.0
20260508073030 5 36 9.7 16.1 0.00 0.00 0.00 87 1002.1
20260508071539 5 65 8.0 19.3 0.00 0.00 0.00 87 1002.2
20260508070026 5 61 8.0 16.1 0.00 0.00 0.00 87 1001.9
20260508064523 6 56 8.0 19.3 0.00 0.00 0.00 87 1002.0
20260508063031 6 59 6.4 20.9 0.00 0.00 0.00 87 1002.1
20260508061517 7 57 3.2 17.7 0.00 0.00 0.00 87 1002.0
20260508060015 8 51 6.4 16.1 0.00 0.00 0.00 87 1001.7
20260508054512 8 44 6.4 16.1 0.00 0.00 0.00 87 1001.9
20260508053008 8 60 0.0 11.3 0.00 0.00 0.00 87 1002.0
20260508051507 8 40 1.6 9.7 0.00 0.00 0.00 87 1001.5
20260508050004 8 70 1.6 8.0 0.00 0.00 0.00 87 1001.5
20260508044501 9 10 3.2 6.4 0.00 0.00 0.00 87 1001.7
20260508043103 9 310 0.0 3.2 0.00 0.00 0.00 87 1001.9
20260508041555 9 223 0.0 0.0 0.00 0.00 0.00 87 1001.9
20260508040055 9 223 0.0 0.0 0.00 0.00 0.00 87 1001.9
20260508034546 9 223 0.0 0.0 0.00 0.00 0.00 87 1002.2
20260508033042 9 223 0.0 0.0 0.00 0.00 0.00 87 1002.3
20260508031538 9 223 0.0 0.0 0.00 0.00 0.00 87 1002.3
20260508030035 9 223 0.0 0.0 0.00 0.00 0.00 87 1002.4
20260508024545 9 223 3.2 4.8 0.00 0.00 0.00 87 1002.3
20260508023035 9 223 0.0 3.2 0.00 0.00 0.00 87 1002.0
20260508021535 9 223 0.0 0.0 0.00 0.00 0.00 87 1002.1
20260508020033 9 223 0.0 1.6 0.00 0.00 0.00 87 1002.1
20260508014540 8 193 1.6 4.8 0.00 0.00 0.00 87 1002.3
20260508013032 8 191 1.6 6.4 0.00 0.00 0.00 87 1002.0
20260508011535 8 215 1.6 6.4 0.00 0.00 0.00 87 1002.2
20260508010035 8 210 3.2 11.3 0.00 0.00 0.00 87 1002.4
20260508004534 8 222 3.2 9.7 0.00 0.00 0.00 87 1002.4
20260508003030 8 230 0.0 4.8 0.00 0.00 0.00 87 1002.3
20260508001631 9 249 1.6 8.0 0.00 0.00 0.00 87 1002.6
20260508000028 9 202 3.2 12.9 0.00 0.00 0.00 87 1002.9
20260507234527 9 188 1.6 9.7 0.00 0.00 0.00 87 1002.5
20260507233038 9 200 1.6 9.7 0.00 0.00 0.00 87 1002.9
20260507231534 9 217 1.6 8.0 0.00 0.00 0.00 88 1003.2
20260507230025 9 173 3.2 8.0 0.00 0.00 0.00 88 1002.9
20260507224531 9 186 1.6 6.4 0.00 0.00 0.00 88 1003.2
20260507223026 9 252 3.2 8.0 0.00 0.00 0.00 88 1003.1
20260507221533 9 166 1.6 8.0 0.00 0.00 0.00 88 1003.3
20260507220022 9 210 1.6 8.0 0.00 0.00 0.00 88 1003.4
20260507214520 9 215 3.2 12.9 0.00 0.00 0.00 88 1002.9
20260507213019 9 254 6.4 12.9 0.00 0.00 0.00 89 1002.5
20260507211522 9 196 6.4 16.1 0.00 0.00 0.00 89 1002.6
20260507210012 10 183 6.4 16.1 0.00 0.00 0.00 89 1003.5
20260507204509 10 203 3.2 16.1 0.00 0.00 0.00 89 1004.1